EA5SW-13 Weather Reports


Display with metric or nautical units.
time (UTC)temp
F
wind
direction
speed
MPH
gust
MPH
rain 1hr
in
rain 24hr
in
rain mn
in
humidity
%
barometer
mb
20260509072627 62 0.0 0.0 0.00 0.00 0.00 80
20260509071652 63 0.0 0.0 0.00 0.00 0.00 80
20260509070628 63 0.0 0.0 0.00 0.00 0.00 80
20260509065712 63 0.0 0.0 0.00 0.00 0.00 80
20260509064628 63 0.0 0.0 0.00 0.00 0.00 80
20260509063652 63 0.0 1.0 0.00 0.00 0.00 80
20260509062628 63 0.0 1.0 0.00 0.00 0.00 80
20260509061711 62 0.0 2.0 0.00 0.00 0.00 81
20260509060628 62 180 1.0 2.0 0.00 0.00 0.00 81
20260509055652 62 0.0 1.0 0.00 0.00 0.00 81
20260509054628 62 0.0 0.0 0.00 0.00 0.00 81
20260509053652 62 0.0 0.0 0.00 0.00 0.00 81
20260509052628 62 0.0 1.0 0.00 0.00 0.00 81
20260509051652 62 0.0 2.0 0.00 0.00 0.00 81
20260509050708 62 180 1.0 2.0 0.00 0.00 0.00 81
20260509045428 62 0.0 0.0 0.00 0.00 0.00 81
20260509044452 62 0.0 1.0 0.00 0.00 0.00 82
20260509043428 62 0.0 0.0 0.00 0.00 0.00 82
20260509042512 62 0.0 1.0 0.00 0.00 0.00 81
20260509041429 62 0.0 0.0 0.00 0.00 0.00 80
20260509040452 63 0.0 1.0 0.00 0.00 0.00 80
20260509035252 63 0.0 1.0 0.00 0.00 0.00 78
20260509034228 63 0.0 1.0 0.00 0.00 0.00 78
20260509033252 63 0.0 1.0 0.00 0.00 0.00 77
20260509032228 63 0.0 1.0 0.00 0.00 0.00 77
20260509031252 63 0.0 0.0 0.00 0.00 0.00 76
20260509030228 63 0.0 1.0 0.00 0.00 0.00 76
20260509025828 63 0.0 0.0 0.00 0.00 0.00 75
20260509024912 63 0.0 1.0 0.00 0.00 0.00 75
20260509023828 63 0.0 1.0 0.00 0.00 0.00 75
20260509022852 63 0.0 1.0 0.00 0.00 0.00 76
20260509021828 63 0.0 1.0 0.00 0.00 0.00 76
20260509020852 63 0.0 1.0 0.00 0.00 0.00 77
20260509015828 63 0.0 1.0 0.00 0.00 0.00 78
20260509014852 63 0.0 0.0 0.00 0.00 0.00 80
20260509013828 62 0.0 1.0 0.00 0.00 0.00 80
20260509012852 62 0.0 1.0 0.00 0.00 0.00 80
20260509012004 63 0.0 1.0 0.00 0.00 0.00 80
20260509010316 63 0.0 1.0 0.00 0.00 0.00 80
20260509005340 63 0.0 1.0 0.00 0.00 0.00 80
20260509004055 63 0.0 1.0 0.00 0.00 0.00 80
20260509003604 63 0.0 1.0 0.00 0.00 0.00 81
20260509001028 63 0.0 0.0 0.00 0.00 0.00 81
20260508235828 63 0.0 0.0 0.00 0.00 0.00 81
20260508234852 63 0.0 0.0 0.00 0.00 0.00 81
20260508233653 63 0.0 1.0 0.00 0.00 0.00 81
20260508232452 63 0.0 1.0 0.00 0.00 0.00 81
20260508231428 63 0.0 0.0 0.00 0.00 0.00 81
20260508230452 64 0.0 1.0 0.00 0.00 0.00 77
20260508225429 64 0.0 1.0 0.00 0.00 0.00 76
20260508224452 64 0.0 1.0 0.00 0.00 0.00 76
20260508223428 64 0.0 0.0 0.00 0.00 0.00 76
20260508222452 64 0.0 1.0 0.00 0.00 0.00 76
20260508221430 64 0.0 0.0 0.00 0.00 0.00 76
20260508220454 0 0.0 0.0 0.00 0.00 0.00
20260508215428 64 0.0 0.0 0.00 0.00 0.00 76
20260508214540 64 0.0 0.0 0.00 0.00 0.00 76
20260508213429 64 0.0 0.0 0.00 0.00 0.00 75
20260508212452 64 0.0 0.0 0.00 0.00 0.00 75
20260508211429 64 0.0 0.0 0.00 0.00 0.00 75
20260508210452 64 0.0 0.0 0.00 0.00 0.00 75
20260508205428 64 0.0 0.0 0.00 0.00 0.00 74
20260508204453 64 0.0 0.0 0.00 0.00 0.00 74
20260508203429 64 0.0 0.0 0.00 0.00 0.00 74
20260508202453 64 0.0 1.0 0.00 0.00 0.00 74
20260508201429 65 0.0 0.0 0.00 0.00 0.00 74
20260508200452 0 0.0 0.0 0.00 0.00 0.00
20260508195253 65 0.0 1.0 0.00 0.00 0.00 73
20260508194228 65 0.0 0.0 0.00 0.00 0.00 72
20260508193253 65 0.0 0.0 0.00 0.00 0.00 72
20260508192310 66 0.0 0.0 0.00 0.00 0.00 71
20260508191029 66 0.0 0.0 0.00 0.01 0.00 70
20260508185653 67 0.0 1.0 0.00 0.02 0.00 68
20260508184709 68 0.0 0.0 0.00 0.04 0.00 66
20260508183740 69 0.0 0.0 0.00 0.06 0.00 65
20260508182649 70 0.0 0.0 0.00 0.07 0.00 64
20260508181653 71 0.0 1.0 0.00 0.08 0.00 62
20260508180629 73 0.0 1.0 0.00 0.11 0.00 57
20260508175653 74 0.0 1.0 0.00 0.13 0.00 55
20260508174629 74 0.0 1.0 0.00 0.17 0.00 54
20260508173653 74 0.0 1.0 0.00 0.17 0.00 54
20260508172629 73 0.0 1.0 0.00 0.17 0.00 54
20260508171652 73 0.0 1.0 0.00 0.17 0.00 52
20260508170629 75 0.0 1.0 0.00 0.17 0.00 51
20260508165653 76 0.0 1.0 0.00 0.17 0.00 50
20260508164629 76 0.0 1.0 0.00 0.17 0.00 50
20260508163653 76 0.0 1.0 0.00 0.17 0.00 51
20260508162649 76 0.0 1.0 0.00 0.17 0.00 48
20260508161653 77 0.0 1.0 0.00 0.17 0.00 47
20260508160629 0 0.0 0.0 0.00 0.17 0.00
20260508155653 77 0.0 1.0 0.00 0.17 0.00 51
20260508154629 76 180 1.0 2.0 0.00 0.17 0.00 49
20260508153713 78 0.0 1.0 0.00 0.17 0.00 50
20260508152650 77 135 0.0 2.0 0.00 0.17 0.00 51
20260508151653 76 0.0 1.0 0.00 0.17 0.00 52
20260508150629 75 0.0 1.0 0.00 0.17 0.00 55
20260508145653 77 0.0 2.0 0.00 0.17 0.00 50
20260508144629 78 0.0 1.0 0.00 0.17 0.00 51
20260508143653 76 0.0 2.0 0.00 0.17 0.00 50
20260508142709 76 315 0.0 2.0 0.00 0.17 0.00 46
20260508141653 76 0.0 3.0 0.00 0.17 0.00 48
20260508140717 0 0.0 0.0 0.00 0.17 0.00
20260508135653 76 300 1.0 2.0 0.00 0.17 0.00 52
20260508134709 75 0.0 1.0 0.00 0.17 0.00 52
20260508133653 73 0.0 1.0 0.00 0.17 0.00 58
20260508132709 70 0.0 1.0 0.00 0.17 0.00 61
20260508131653 70 0.0 1.0 0.00 0.17 0.00 60
20260508130630 70 0.0 1.0 0.00 0.17 0.00 62
20260508125654 70 0.0 1.0 0.00 0.17 0.00 61
20260508124629 70 0.0 1.0 0.00 0.17 0.00 65
20260508123653 68 0.0 0.0 0.00 0.17 0.00 68
20260508122630 67 0.0 0.0 0.00 0.17 0.00 69
20260508121653 66 0.0 0.0 0.00 0.17 0.00 68
20260508120629 0 0.0 0.0 0.00 0.17 0.00
20260508115733 66 0.0 0.0 0.00 0.17 0.00 67
20260508114650 66 0.0 0.0 0.00 0.17 0.00 65
20260508113653 66 0.0 1.0 0.00 0.17 0.00 64
20260508112630 66 0.0 0.0 0.00 0.17 0.00 64
20260508111653 65 0.0 0.0 0.00 0.17 0.00 64
20260508110630 65 0.0 0.0 0.00 0.17 0.00 64
20260508105653 66 0.0 0.0 0.00 0.17 0.00 69
20260508104630 65 0.0 0.0 0.00 0.17 0.00 69
20260508103654 65 0.0 0.0 0.00 0.17 0.00 68
20260508102629 65 0.0 0.0 0.00 0.17 0.00 66
20260508101653 66 0.0 0.0 0.00 0.17 0.00 66
20260508100630 66 0.0 0.0 0.00 0.17 0.00 65
20260508095654 67 0.0 0.0 0.00 0.17 0.00 66
20260508094630 66 0.0 0.0 0.00 0.17 0.00 65
20260508093734 66 0.0 0.0 0.00 0.17 0.00 64
20260508092630 66 0.0 0.0 0.00 0.17 0.00 63
20260508091654 65 0.0 0.0 0.00 0.17 0.00 64
20260508090630 0 0.0 0.0 0.00 0.17 0.00
20260508085654 64 0.0 1.0 0.00 0.17 0.00 65
20260508084630 63 0.0 1.0 0.00 0.17 0.00 70
20260508083714 63 0.0 0.0 0.00 0.17 0.00 72
20260508082630 62 0.0 0.0 0.00 0.17 0.00 73
20260508081653 61 0.0 0.0 0.00 0.17 0.00 73
20260508080630 60 0.0 1.0 0.00 0.17 0.00 72
20260508075654 60 0.0 0.0 0.00 0.17 0.00 73
20260508074630 59 0.0 0.0 0.00 0.17 0.00 73
20260508073653 59 0.0 1.0 0.00 0.17 0.00 74